This demonstration page uses our WeatherBlox Daily Observations layout. Learn more.

Left ArrowRight Arrow

39.95238, -75.16362

Hourly Observations for January 20, 2022

Temp ( °F °C ) Dew Point ( °F °C ) Humidity (%) Winds ( mph kmh ) Pressure ( in mb ) Visibility ( mi km ) Precip ( " mm )
12:54 am 00:54 Cloudy 44 6.7 31 -0.6 60 60 WSW 7 11 29.99 1016 10 16 0.00 0.00
1:54 am 01:54 Cloudy with Light Rain 43 6.1 32 0 65 65 WSW 8 13 30.01 1016 10 16 0.00 0.00
2:49 am 02:49 Cloudy with Light Rain 43 6 36 2 76 76 W 7 11 30.02 1017 8 13 0.01 0.25
2:54 am 02:54 Cloudy with Light Rain 42 5.6 35 1.7 76 76 W 6 9 30.02 1017 8 13 0.01 0.25
3:28 am 03:28 Cloudy with Light Rain 45 7.2 36 2.2 71 71 WNW 8 13 30.02 1017 6 10 0.03 0.76
3:54 am 03:54 Cloudy with Light Rain 44 6.7 36 2.2 73 73 NW 6 9 30.01 1016 6 10 0.04 1.02
4:00 am 04:00 Cloudy with Light Rain 43 6.1 36 2.2 76 76 NW 5 7 30.01 1016 10 16 0.00 0.00
4:47 am 04:47 Cloudy with Light Rain 42 5.6 38 3.3 85 85 Calm 30.02 1017 7 11 0.02 0.51
4:54 am 04:54 Cloudy with Light Rain 42 5.6 37 2.8 82 82 Calm 30.02 1017 7 11 0.02 0.51
5:40 am 05:40 Cloudy with Light Rain 41 5 37 2.8 86 86 Calm 30.03 1017 7 11 0.01 0.25
5:54 am 05:54 Cloudy with Light Rain 41 5 37 2.8 86 86 SSE 3 6 30.04 1017 6 10 0.02 0.51
6:54 am 06:54 Cloudy with Light Rain 41 5 37 2.8 86 86 VRB 6 9 30.07 1018 5 8 0.05 1.27
7:10 am 07:10 Cloudy with Rain 41 5 38 3.3 89 89 Calm 30.08 1019 4 6 0.04 1.02
7:36 am 07:36 Cloudy with Light Rain 42 5.6 37 2.8 82 82 NW 8 13 30.09 1019 4 6 0.07 1.78
7:54 am 07:54 Cloudy with Light Rain 42 5.6 36 2.2 79 79 NNW 14 22 30.09 1019 4 6 0.09 2.29
8:48 am 08:48 Cloudy with Light Rain 39 4 36 2 87 87 NNW 9 15 30.12 1020 5 8 0.04 1.02
8:54 am 08:54 Cloudy with Light Rain 40 4.4 35 1.7 83 83 NNW 10 17 30.12 1020 5 8 0.04 1.02
9:46 am 09:46 Cloudy with Light Rain/Snow 38 3.3 33 0.6 83 83 N 14 22 30.15 1021 5 8 0.02 0.51
9:54 am 09:54 Cloudy with Light Rain/Snow 37 2.8 33 0.6 86 86 N 12 19 30.15 1021 5 8 0.02 0.51
10:12 am 10:12 Cloudy with Light Wintry Mix 37 2.8 33 0.6 86 86 N 12 19 30.16 1021 4 6 0.01 0.25
10:54 am 10:54 Cloudy with Light Wintry Mix 36 2.2 32 0 86 86 N 13 20 30.15 1021 4 6 0.01 0.25
11:28 am 11:28 Cloudy with Light Snow 35 1.7 31 -0.6 85 85 N 12 19 30.17 1022 3 4 0.01 0.25
11:44 am 11:44 Cloudy with Light Snow 35 1.7 30 -1.1 82 82 N 13 20 30.18 1022 3 5 0.01 0.25
11:54 am 11:54 Cloudy 35 1.7 30 -1.1 82 82 N 15 24 30.17 1022 10 16 0.01 0.25
12:28 pm 12:28 Cloudy 35 1.7 29 -1.7 78 78 N 10 17 30.19 1022 10 16 0.00 0.00
12:41 pm 12:41 Cloudy 35 1.7 29 -1.7 78 78 N 13 20 30.19 1022 10 16 0.00 0.00
12:54 pm 12:54 Cloudy 36 2.2 27 -2.8 70 70 N 14 22 30.18 1022 10 16 0.00 0.00
1:03 pm 13:03 Cloudy 36 2.2 26 -3.3 67 67 N 13 20 30.19 1022 10 16 0.00 0.00
1:35 pm 13:35 Cloudy 36 2.2 25 -3.9 64 64 NNW 15 24 30.18 1022 10 16 0.00 0.00
1:54 pm 13:54 Mostly Cloudy 35 1.7 24 -4.4 64 64 NNW 16 26 30.18 1022 10 16 0.00 0.00
2:54 pm 14:54 Mostly Cloudy 34 1.1 21 -6.1 59 59 NNW 18 30 30.20 1023 10 16 0.00 0.00
3:54 pm 15:54 Mostly Cloudy 35 1.7 20 -6.7 54 54 NNW 12 19 30.22 1023 10 16 0.00 0.00
4:54 pm 16:54 Mostly Cloudy 34 1.1 14 -10 44 44 NNW 15 24 30.24 1024 10 16 0.00 0.00
5:54 pm 17:54 Mostly Cloudy 33 0.6 12 -11.1 42 42 NNW 16 26 30.28 1026 10 16 0.00 0.00
6:54 pm 18:54 Mostly Cloudy 31 -0.6 8 -13.3 38 38 N 16 26 30.31 1026 10 16 0.00 0.00
7:54 pm 19:54 Mostly Cloudy 29 -1.7 8 -13.3 41 41 N 15 24 30.33 1027 10 16 0.00 0.00
8:54 pm 20:54 Partly Cloudy 27 -2.8 6 -14.4 41 41 N 16 26 30.36 1028 10 16 0.00 0.00
9:54 pm 21:54 Mostly Clear 25 -3.9 6 -14.4 44 44 N 15 24 30.40 1029 10 16 0.00 0.00
10:54 pm 22:54 Mostly Clear 24 -4.4 4 -15.6 42 42 N 16 26 30.41 1030 10 16 0.00 0.00
11:54 pm 23:54 Mostly Clear 22 -5.6 4 -15.6 46 46 N 14 22 30.41 1030 10 16 0.00 0.00

Powered by AerisWeather